TIAA Bank Field FL US WEATHERSTEM current weather conditions

sailwx.info

Wind from 258 at 9 knots gusting 10

Air temperature 11.8° C
Dewpoint 8.4° C

Last reported at 2020-Jan-25 12:50 UTC.
Time now 2020-Jan-25 13:52 UTC

Location: N 30°19' W 081°38'.
View on Google Maps.

See reports from other nearby stations

  
Tides and Currents Weather Stations Pressure Air Temp Water Temp Dewpoint Dewpoint Depression Visibility Wind Speed Wind Dir Waves Ship Positions
date/time (UTC)wind fromknots sea level pressurealtimeterstation pressurevisibilityair tempwater tempwave heightnotes
2020-Jan-25 12:50 258 9 gusting 10 11.8
2020-Jan-25 12:30 333 7 gusting 10 11.8
2020-Jan-25 12:20 329 5 gusting 13 11.8
2020-Jan-25 12:10 312 6 gusting 13 11.9
2020-Jan-25 12:00 312 7 gusting 13 12.1
2020-Jan-25 11:50 301 8 gusting 10 12.3
2020-Jan-25 11:30 286 11 gusting 11 12.5
2020-Jan-25 11:20 314 5 gusting 11 12.6
2020-Jan-25 11:10 294 6 gusting 11 12.8
2020-Jan-25 11:00 298 7 gusting 8 12.8
2020-Jan-25 10:50 297 6 gusting 8 12.8
2020-Jan-25 10:40 327 6 gusting 7 12.9
2020-Jan-25 10:30 288 6 gusting 7 13.1
2020-Jan-25 10:20 302 4 gusting 10 13.2
2020-Jan-25 10:10 315 4 gusting 10 13.4
2020-Jan-25 09:50 306 6 gusting 13 13.7
2020-Jan-25 09:40 316 7 gusting 13 13.8
2020-Jan-25 09:30 344 5 gusting 13 13.9
2020-Jan-25 09:20 340 6 gusting 14 14.1
2020-Jan-25 09:10 319 9 gusting 12 14.3
2020-Jan-25 09:00 302 10 gusting 13 14.5
2020-Jan-25 08:50 236 6 gusting 13 14.8
2020-Jan-25 08:40 307 6 gusting 14 14.8
2020-Jan-25 08:30 292 8 gusting 13 15.1
2020-Jan-25 08:20 290 6 gusting 13 15.2
2020-Jan-25 08:10 345 10 gusting 15 15.3
2020-Jan-25 08:00 301 6 gusting 11 15.4
2020-Jan-25 07:50 277 6 gusting 11 15.6
2020-Jan-25 07:40 261 7 gusting 9 15.7
2020-Jan-25 07:30 256 7 gusting 11 15.9
2020-Jan-25 07:20 257 6 gusting 11 16.0
2020-Jan-25 07:10 257 6 gusting 12 16.2
2020-Jan-25 07:00 244 8 gusting 12 16.3
2020-Jan-25 06:50 227 8 gusting 12 16.4
2020-Jan-25 06:30 262 9 gusting 12 16.7
2020-Jan-25 06:10 298 7 gusting 12 16.9
2020-Jan-25 06:00 262 10 gusting 11 17.1
2020-Jan-25 05:50 264 8 gusting 17 17.3
2020-Jan-25 05:40 242 9 gusting 16 17.4
2020-Jan-25 05:30 275 12 gusting 18 17.4
2020-Jan-25 05:20 229 11 gusting 19 17.5
2020-Jan-25 05:10 267 12 gusting 19 17.4
2020-Jan-25 05:00 213 12 gusting 21 17.4
2020-Jan-25 04:50 245 13 gusting 21 17.1
2020-Jan-25 04:30 221 3 gusting 8 16.8
2020-Jan-25 04:20 218 5 gusting 8 16.9
2020-Jan-25 04:10 215 5 gusting 7 17.1
2020-Jan-25 03:50 200 2 gusting 7 17.4
2020-Jan-25 03:40 217 2 gusting 7 17.5
2020-Jan-25 03:30 221 6 gusting 7 17.6
2020-Jan-25 03:20 233 4 gusting 6 17.6
2020-Jan-25 03:10 219 5 gusting 7 17.7
2020-Jan-25 02:50 216 2 gusting 8 18.0
2020-Jan-25 02:40 213 5 gusting 7 18.1
2020-Jan-25 02:30 206 3 gusting 8 18.2
2020-Jan-25 02:20 212 5 gusting 10 18.2
2020-Jan-25 02:10 211 7 gusting 8 17.9
2020-Jan-25 01:50 216 5 gusting 8 17.8
2020-Jan-25 01:40 218 5 gusting 6 17.8
2020-Jan-25 01:20 202 4 gusting 8 18.0
2020-Jan-25 01:10 196 3 gusting 7 18.1
2020-Jan-25 01:00 192 3 gusting 7 18.2
2020-Jan-25 00:50 224 4 gusting 5 18.3
2020-Jan-25 00:40 221 3 gusting 5 18.3
2020-Jan-25 00:20 211 2 gusting 5 18.6
2020-Jan-25 00:10 170 4 gusting 5 18.7
2020-Jan-25 00:00 213 1 gusting 6 18.7
2020-Jan-24 23:50 180 0 gusting 6 18.9
2020-Jan-24 23:40 172 2 gusting 6 19.1
2020-Jan-24 23:30 210 3 gusting 6 19.3
2020-Jan-24 23:10 177 3 gusting 9 19.7
2020-Jan-24 23:00 187 2 gusting 9 19.9
2020-Jan-24 22:50 162 8 gusting 11 20.2
2020-Jan-24 22:40 155 2 gusting 9 20.4
2020-Jan-24 21:50 218 4 gusting 10 20.2
2020-Jan-24 21:30 214 5 gusting 11 20.2
2020-Jan-24 21:10 207 6 gusting 13 20.9
2020-Jan-24 21:00 215 3 gusting 9 20.9
2020-Jan-24 20:50 219 8 gusting 12 20.7
2020-Jan-24 20:40 230 9 gusting 24 20.2
2020-Jan-24 20:30 217 11 gusting 12 22.2
2020-Jan-24 20:20 175 6 gusting 8 22.6
2020-Jan-24 20:10 141 3 gusting 10 22.5
2020-Jan-24 20:00 185 5 gusting 11 22.4
2020-Jan-24 19:50 196 6 gusting 13 22.4
2020-Jan-24 19:40 167 10 gusting 13 22.5
2020-Jan-24 19:30 185 6 gusting 13 22.4
2020-Jan-24 19:20 192 4 gusting 13 22.6
2020-Jan-24 19:00 178 6 gusting 13 22.6
2020-Jan-24 18:50 169 8 gusting 13 22.8
2020-Jan-24 18:40 165 6 gusting 12 22.6
2020-Jan-24 18:30 145 9 gusting 12 22.3
2020-Jan-24 18:20 215 6 gusting 13 22.3
2020-Jan-24 18:00 150 7 gusting 13 22.0
2020-Jan-24 17:50 243 6 gusting 13 21.9
2020-Jan-24 17:40 198 5 gusting 12 21.6
2020-Jan-24 17:30 194 3 gusting 11 21.8
2020-Jan-24 17:20 165 8 gusting 10 21.4
2020-Jan-24 17:10 138 6 gusting 13 21.5
2020-Jan-24 17:00 187 5 gusting 12 21.6
2020-Jan-24 16:50 166 6 gusting 8 21.8
2020-Jan-24 16:40 194 3 gusting 8 21.7
2020-Jan-24 16:30 148 4 gusting 8 21.1
2020-Jan-24 16:20 223 6 gusting 9 20.9
2020-Jan-24 16:10 173 6 gusting 12 20.9
2020-Jan-24 15:50 180 4 gusting 10 20.9
2020-Jan-24 15:40 107 2 gusting 9 20.7
2020-Jan-24 15:20 142 3 gusting 7 20.0
2020-Jan-24 15:10 176 2 gusting 6 19.8
2020-Jan-24 15:00 105 3 gusting 10 19.9
2020-Jan-24 14:50 180 4 gusting 9 19.6
2020-Jan-24 14:30 151 2 gusting 9 18.9
2020-Jan-24 14:20 154 7 gusting 10 18.8
2020-Jan-24 14:10 182 2 gusting 7 18.2
2020-Jan-24 13:40 129 6 gusting 8 16.4
2020-Jan-24 13:30 151 2 gusting 7 16.2
2020-Jan-24 13:20 132 3 gusting 7 16.1
2020-Jan-24 13:10 067 1 gusting 7 16.0
2020-Jan-24 13:00 131 4 gusting 7 15.9
2020-Jan-24 12:50 148 5 gusting 8 15.8
2020-Jan-24 12:40 121 6 gusting 8 15.4
2020-Jan-24 12:30 128 2 gusting 7 15.4
2020-Jan-24 12:20 055 1 gusting 8 15.3
2020-Jan-24 12:00 107 6 gusting 7 15.3
2020-Jan-24 11:50 154 6 gusting 7 15.6
2020-Jan-24 11:40 134 4 gusting 6 15.8
2020-Jan-24 11:10 128 0 gusting 5 16.2
2020-Jan-24 10:50 117 0 gusting 3 15.8
2020-Jan-24 10:40 117 0 gusting 3 16.1
2020-Jan-24 10:30 148 0 gusting 6 16.2
2020-Jan-24 10:20 104 6 gusting 6 15.9
2020-Jan-24 10:10 135 1 gusting 3 15.6
2020-Jan-24 10:00 15.2
2020-Jan-24 09:50 126 0 gusting 2 15.0
2020-Jan-24 09:20 125 1 gusting 1 14.9
2020-Jan-24 09:00 126 0 gusting 1 15.0
2020-Jan-24 08:50 126 0 gusting 1 14.9
2020-Jan-24 08:40 126 0 gusting 1 15.2
2020-Jan-24 08:30 14.6
2020-Jan-24 08:20 14.7
2020-Jan-24 08:00 049 0 gusting 2 14.6
2020-Jan-24 07:50 14.4
2020-Jan-24 07:40 049 0 gusting 2 14.5
2020-Jan-24 07:30 14.4
2020-Jan-24 07:20 013 1 gusting 4 14.4
2020-Jan-24 07:10 005 3 gusting 3 14.4
2020-Jan-24 07:00 331 1 gusting 4 14.3
2020-Jan-24 06:50 344 2 gusting 3 14.3
2020-Jan-24 06:40 355 3 gusting 3 14.3
2020-Jan-24 06:30 030 1 gusting 4 14.4
2020-Jan-24 06:10 360 1 gusting 2 14.3
2020-Jan-24 06:00 352 0 gusting 2 14.4
2020-Jan-24 05:50 022 1 gusting 3 14.3
2020-Jan-24 05:40 011 1 gusting 3 14.4
2020-Jan-24 05:30 044 1 gusting 3 14.4
2020-Jan-24 05:10 018 1 gusting 3 14.4
2020-Jan-24 05:00 024 1 gusting 4 14.4
2020-Jan-24 04:50 056 2 gusting 4 14.4
2020-Jan-24 04:40 082 1 gusting 2 14.4
2020-Jan-24 04:20 103 1 gusting 6 14.4
2020-Jan-24 04:10 140 1 gusting 6 14.5
2020-Jan-24 04:00 132 2 gusting 6 14.5
2020-Jan-24 03:50 117 1 gusting 4 14.6
2020-Jan-24 03:10 064 1 gusting 5 14.2
2020-Jan-24 03:00 046 3 gusting 6 14.1
2020-Jan-24 02:50 046 6 gusting 6 14.0
2020-Jan-24 02:30 037 1 gusting 5 13.9
2020-Jan-24 02:20 068 5 gusting 7 13.8
2020-Jan-24 01:40 070 2 gusting 7 13.5
2020-Jan-24 01:30 078 6 gusting 8 13.4
2020-Jan-24 01:10 073 7 gusting 10 13.1
2020-Jan-24 01:00 051 8 gusting 11 13.1
2020-Jan-24 00:50 068 4 gusting 12 12.9
2020-Jan-24 00:40 057 8 gusting 11 12.8
2020-Jan-24 00:30 064 5 gusting 10 12.8
2020-Jan-24 00:20 049 4 gusting 9 12.7
2020-Jan-24 00:00 054 3 gusting 10 12.7
2020-Jan-23 23:50 085 6 gusting 11 12.6
2020-Jan-23 23:40 083 4 gusting 11 12.6
2020-Jan-23 23:20 045 10 gusting 13 12.6
2020-Jan-23 23:00 053 5 gusting 13 12.6
2020-Jan-23 22:50 093 5 gusting 13 12.6
2020-Jan-23 22:30 026 6 gusting 13 12.6
2020-Jan-23 22:20 038 6 gusting 13 12.7
2020-Jan-23 22:10 038 7 gusting 12 12.8
2020-Jan-23 22:00 130 10 gusting 13 12.9
2020-Jan-23 21:40 019 10 gusting 13 13.1
2020-Jan-23 21:30 061 3 gusting 11 13.2
2020-Jan-23 21:20 067 7 gusting 12 13.2
2020-Jan-23 21:10 044 5 gusting 13 13.2
2020-Jan-23 21:00 087 4 gusting 19 13.1
2020-Jan-23 20:50 095 5 gusting 13 13.2
2020-Jan-23 20:40 125 6 gusting 12 13.4
2020-Jan-23 20:30 096 6 gusting 16 13.4
2020-Jan-23 20:20 046 7 gusting 14 13.5
2020-Jan-23 20:10 350 3 gusting 12 13.6
2020-Jan-23 20:00 056 4 gusting 13 13.5
2020-Jan-23 19:50 044 11 gusting 13 13.6
2020-Jan-23 19:40 039 8 gusting 13 13.5
2020-Jan-23 19:30 046 6 gusting 13 13.6
2020-Jan-23 19:20 071 3 gusting 13 13.7
2020-Jan-23 19:10 073 6 gusting 13 13.9
2020-Jan-23 19:00 096 3 gusting 17 14.0
2020-Jan-23 18:50 056 12 gusting 18 14.1
2020-Jan-23 18:40 036 5 gusting 13 14.1
2020-Jan-23 18:30 050 8 gusting 14 14.1
2020-Jan-23 18:20 044 9 gusting 11 14.2
2020-Jan-23 18:10 044 5 gusting 14 14.1
2020-Jan-23 18:00 066 9 gusting 13 14.3
2020-Jan-23 17:50 015 6 gusting 14 14.4
2020-Jan-23 17:40 059 8 gusting 15 14.3
2020-Jan-23 17:30 036 10 gusting 13 14.4
2020-Jan-23 17:20 060 3 gusting 14 14.4
2020-Jan-23 17:10 052 4 gusting 13 14.2
2020-Jan-23 17:00 036 9 gusting 13 14.2
2020-Jan-23 16:50 056 3 gusting 14 13.9
2020-Jan-23 16:40 063 7 gusting 13 13.9
2020-Jan-23 16:30 021 1 gusting 12 14.2
2020-Jan-23 16:20 350 2 gusting 16 14.1
2020-Jan-23 16:10 055 14 gusting 14 14.1
2020-Jan-23 16:00 048 10 gusting 16 14.0
2020-Jan-23 15:50 067 11 gusting 18 14.0
2020-Jan-23 15:40 117 11 gusting 16 13.9
2020-Jan-23 15:30 038 6 gusting 15 13.8
2020-Jan-23 15:20 005 10 gusting 13 13.8
2020-Jan-23 15:10 005 6 gusting 14 13.7
2020-Jan-23 15:00 070 3 gusting 13 13.6
2020-Jan-23 14:40 097 6 gusting 13 13.3
2020-Jan-23 14:30 036 6 gusting 12 13.2
2020-Jan-23 14:20 018 8 gusting 13 13.1
2020-Jan-23 14:10 054 5 gusting 11 13.1
2020-Jan-23 14:00 005 3 gusting 13 12.9
2020-Jan-23 13:50 015 4 gusting 12 12.9
2020-Jan-23 13:40 005 5 gusting 11 12.8
2020-Jan-23 13:30 034 6 gusting 11 12.7
2020-Jan-23 13:20 005 4 gusting 13 12.7
2020-Jan-23 13:00 011 3 gusting 10 12.4